Regional Weather Roundup
Issued by NWS Newport/Morehead, NC

Current Version | Previous Version | Text Only | Print | Product List | Glossary Off
Versions: 1 2 3 4 5 6 7 8 9 10 11 12 13 14 15 16 17 18 19 20 21 22 23 24 25 26 27 28 29 30 31 32 33 34 35 36 37 38 39 40 41 42 43 44 45 46 47 48 49 50

000
ASUS42 KMHX 180524
RWRMHX
WEATHER ROUNDUP FOR EASTERN NORTH CAROLINA
NATIONAL WEATHER SERVICE NEWPORT/MOREHEAD CITY NC
100 AM EDT SAT APR 18 2015

NOTE: "FAIR" INDICATES FEW OR NO CLOUDS BELOW 12,000 FEET
WITH NO SIGNIFICANT WEATHER AND/OR OBSTRUCTIONS TO VISIBILITY

NCZ015>017-031-032-045>047-102-103-180600-
NORTH COAST

CITY           SKY/WX    TMP DP  RH WIND       PRES   REMARKS
EDENTON        CLOUDY    63  62  94 S3        30.01S
ELIZABETH CITY MOCLDY    65  62  90 S3        30.00S
KITTY HAWK     MOCLDY    64  63  94 CALM      30.00S
MANTEO         CLOUDY    64  63  97 CALM      30.01S

$$

NCZ045>047-081-094-103-104-180600-
CENTRAL COAST

CITY           SKY/WX    TMP DP  RH WIND       PRES   REMARKS
FRISCO         CLOUDY    61  60  97 CALM      30.00F
SWANQUARTER      N/A     68 N/A N/A CALM      29.97S

$$

NCZ095-097-098-100-101-180600-
SOUTHERN COAST

CITY           SKY/WX    TMP DP  RH WIND       PRES   REMARKS
BEAUFORT       CLOUDY    65  64  97 CALM      29.99F
CEDAR ISLAND     N/A     66 N/A N/A S1        30.03S
JACKSONVILLE   CLOUDY    65  63  93 CALM      29.99F
PINEY ISLAND   CLOUDY   N/A N/A N/A CALM      30.00S
WILMINGTON     LGT RAIN  67  65  93 CALM      30.00S


$$

NCZ011>013-027>030-043-044-078>080-089-090>093-098-180600-
COASTAL PLAIN

CITY           SKY/WX    TMP DP  RH WIND       PRES   REMARKS
AHOSKIE        MOCLDY    61  60  97 CALM      30.00S
CLINTON        CLOUDY    66  66 100 CALM      30.02R
ELIZABETHTOWN  CLOUDY    66  66 100 CALM      30.00F
GOLDSBORO      CLOUDY    66  64  94 CALM      29.98S
GREENVILLE     CLOUDY    68  64  88 SW3       30.02S
HAVELOCK       CLOUDY    63  61  93 CALM      30.01F
KENANSVILLE    CLOUDY    65  64  95 CALM      30.01S
KINSTON        CLOUDY    65  64  95 CALM      30.01S
NEW BERN       CLOUDY    64  62  93 CALM      30.01F
RICHLANDS      CLOUDY    63  59  88 CALM      30.00F
ROCKY MOUNT    CLOUDY    64  63  96 CALM      30.00S
WASHINGTON     CLOUDY    66  63  90 CALM      30.01S
WHITEVILLE     CLOUDY    65  64  96 CALM      30.00F FOG

$$

AMZ130-135-150-152-154-156-158-170-250-252-270-ANZ085-086-088-633-658-670-180600-
MARINE OBSERVATIONS

STATION/POSITION TIME  TEMP    WIND        PRES    WAVE   SWELL
                       AIR SEA DIR/SP/G            HT/PER HT/PER
                 (UTC) (F)     (DEG/KT/KT) (MB)    (FT/S) (FT/S)
CHESAPEAKE LIGHT 0500   60     210/ 14/ 14 1016.1
64 E VA BEACH    0450   59 55  200/  6/  6 1015.7    4/ 8   3/ 8
DUCK             0500   63 53  200/  5/  6 1015.0
2 E DUCK         0411      53                N/A     3/11   2/11
10 NE DUCK       NOT AVBL
OREGON INLET     0500   59 61  150/  1/  2 1016.0
HATTERAS CG      0406   67 67  110/  2/  4 1015.6
DIAMOND BUOY     0450   72 74  180/  6/  8 1015.8    5/ 8   5/ 8
CAPE LOOKOUT     0500   68      30/  1/  2 1015.4
BEAUFORT LAB     0406   67 63     CALM     1015.2
27 SE WRIGHTSVLE 0500   70 72  130/  8/ 10   N/A
5 SE WRIGHTSVLE  0500   64 63  350/  4/  4 1015.6
225 S CAPE HAT   0450   72 72  180/  2/  2 1015.3    6/ 8   5/ 8
41 SE CHARLESTON 0450   71 74   20/  8/  8 1014.6    4/ 8   3/ 8

$$



USA.gov is the U.S. government's official web portal to all federal, state and local government web resources and services.